Terminal Aerodrome Forecast
Issued by NWS Kansas City/Pleasant Hill, MO

Home | Current Version | Previous Version | Text Only | Print | Product List | Glossary On
Versions: 1 2 3 4 5 6 7 8 9 10 11 12 13 14 15 16 17 18 19
000
FTUS43 KEAX 191727
TAFMCI
TAF
KMCI 191727Z 1918/2018 17008KT P6SM SCT150
     FM200100 32009KT P6SM VCTS BKN020CB
     FM200800 33005KT P6SM BKN008
     FM201500 35003KT P6SM BKN015=

USA.gov is the U.S. government's official web portal to all federal, state and local government web resources and services.